Change the Weather History Date:

Friday, September 7, 2012

  Actual Average Record
Temperature  
Mean Temperature 70 °F -  
Max Temperature 82 °F 79 °F 95 °F (1959)
Min Temperature 57 °F 57 °F 40 °F (1962)
Cooling Degree Days 4    
Growing Degree Days 20 (Base 50)    
Moisture  
Dew Point 61 °F    
Average Humidity 81    
Maximum Humidity 94    
Minimum Humidity 49    
Precipitation  
Precipitation 0.39 in - - ()
Sea Level Pressure  
Sea Level Pressure 29.82 in    
Wind  
Wind Speed 4 mph (SSW)    
Max Wind Speed 17 mph    
Max Gust Speed 21 mph    
Visibility 8 miles    
Events Rain    
Averages and records for this station are not official NWS values.
T = Trace of Precipitation, MM = Missing Value Source: NWS Daily Summary

Daily Weather History Graph

Daily Weather History Graph

Search for Another Location

Airport or City:

Trip Planner

Search our weather history database for the weather conditions in past years. The results will help you decide how hot, cold, wet, or windy it might be!

Date:

Astronomy

Sep. 07, 2012 Rise Set
Actual Time 7:15 AM EDT 8:05 PM EDT
Civil Twilight 6:47 AM EDT 8:33 PM EDT
Nautical Twilight 6:14 AM EDT 9:06 PM EDT
Astronomical Twilight 5:39 AM EDT 9:41 PM EDT
Moon 11:55 PM EDT (9/7) 2:12 PM EDT (9/7)
Length of Visible Light 13h 45m
Length of Day
12h 49m
Waning Gibbous, 58% of the Moon is Illuminated
Sep 7
Waning Gibbous
Sep 8
Last Quarter
Sep 15
New
Sep 22
First Quarter
Sep 29
Full

Hourly Weather History & Observations

Time (EDT) Temp. Heat Index Dew Point Humidity Pressure Visibility Wind Dir Wind Speed Gust Speed Precip Events Conditions
12:53 AM 60.1 °F - 57.0 °F 90% 29.92 in 10.0 mi Calm Calm - N/A   Clear
1:53 AM 57.9 °F - 55.0 °F 90% 29.93 in 10.0 mi Calm Calm - N/A   Clear
2:53 AM 59.0 °F - 55.9 °F 90% 29.92 in 7.0 mi Calm Calm - N/A   Clear
3:53 AM 57.0 °F - 55.0 °F 93% 29.91 in 6.0 mi North 4.6 mph - N/A   Clear
4:53 AM 60.1 °F - 55.9 °F 86% 29.91 in 8.0 mi Calm Calm - N/A   Clear
5:53 AM 59.0 °F - 55.9 °F 90% 29.89 in 8.0 mi Calm Calm - N/A   Clear
6:53 AM 61.0 °F - 57.0 °F 87% 29.88 in 9.0 mi SSE 4.6 mph - N/A   Clear
7:53 AM 61.0 °F - 57.0 °F 87% 29.89 in 10.0 mi Calm Calm - N/A   Clear
8:53 AM 64.0 °F - 59.0 °F 84% 29.91 in 10.0 mi SSE 4.6 mph - N/A   Clear
9:53 AM 69.1 °F - 60.1 °F 73% 29.91 in 10.0 mi NNE 4.6 mph - N/A   Clear
10:53 AM 71.1 °F - 61.0 °F 70% 29.91 in 10.0 mi SSE 3.5 mph - N/A   Partly Cloudy
11:53 AM 69.1 °F - 62.1 °F 78% 29.89 in 10.0 mi ENE 3.5 mph - N/A   Partly Cloudy
12:53 PM 73.9 °F - 66.0 °F 76% 29.84 in 10.0 mi SSE 9.2 mph - 0.00 in   Mostly Cloudy
1:53 PM 75.9 °F - 64.9 °F 69% 29.81 in 10.0 mi SSE 8.1 mph - N/A   Clear
2:53 PM 82.0 °F 82.7 °F 61.0 °F 49% 29.79 in 10.0 mi South 12.7 mph - N/A   Clear
3:53 PM 81.0 °F 81.7 °F 61.0 °F 50% 29.78 in 10.0 mi SSW 13.8 mph - N/A   Clear
4:53 PM 77.0 °F - 62.1 °F 60% 29.75 in 10.0 mi SSW 12.7 mph - N/A   Mostly Cloudy
5:53 PM 73.0 °F - 64.0 °F 73% 29.74 in 10.0 mi SW 6.9 mph - 0.00 in   Partly Cloudy
6:53 PM 72.0 °F - 64.0 °F 76% 29.76 in 10.0 mi SW 9.2 mph - 0.00 in Rain Light Rain
7:53 PM 69.1 °F - 66.0 °F 90% 29.75 in 3.0 mi West 6.9 mph - 0.12 in Rain Rain
8:36 PM 69.8 °F - 64.4 °F 83% 29.74 in 10.0 mi Calm Calm - 0.01 in   Overcast
8:45 PM 68.0 °F - 64.4 °F 88% 29.74 in 10.0 mi Calm Calm - 0.01 in   Overcast
8:53 PM 68.0 °F - 64.9 °F 90% 29.75 in 10.0 mi West 5.8 mph - 0.01 in   Overcast
9:53 PM 68.0 °F - 64.9 °F 90% 29.75 in 7.0 mi Calm Calm - N/A   Overcast
10:53 PM 66.9 °F - 64.0 °F 90% 29.75 in 2.0 mi NW 10.4 mph - 0.10 in Rain Heavy Rain
11:10 PM 64.4 °F - 62.6 °F 94% 29.76 in 3.0 mi North 17.3 mph - 0.11 in Rain Heavy Rain
11:21 PM 64.4 °F - 60.8 °F 88% 29.76 in 6.0 mi North 10.4 mph 19.6 mph 0.12 in Rain Light Rain
11:53 PM 63.0 °F - 59.0 °F 87% 29.74 in 6.0 mi North 16.1 mph 20.7 mph 0.16 in Rain Light Rain